Doha, Qatar

10:32 AM +03 on January 21, 2018 (GMT +0300)
Doha

Weather History for 41170 - April, 2013

Change the Weather History Date:

Sunday, April 28, 2013

  Actual Average Record
Temperature  
Mean Temperature 78 °F -  
Max Temperature 85 °F 100 °F - ()
Min Temperature 71 °F 76 °F - ()
Cooling Degree Days 13    
Growing Degree Days 28 (Base 50)    
Moisture  
Dew Point 57 °F    
Average Humidity 50    
Maximum Humidity 69    
Minimum Humidity 23    
Precipitation  
Precipitation 0.00 in 0.01 in - ()
Sea Level Pressure  
Sea Level Pressure 29.93 in    
Wind  
Wind Speed 4 mph ()    
Max Wind Speed 9 mph    
Max Gust Speed -    
Visibility 6.4 miles    
Events      
T = Trace of Precipitation, MM = Missing Value Source: Averaged Metar Reports

Daily Weather History Graph

Daily Weather History Graph

Search for Another Location

Airport or City:

Trip Planner

Search our weather history database for the weather conditions in past years. The results will help you decide how hot, cold, wet, or windy it might be!

Date:

Astronomy

Apr. 28, 2013 Rise Set
Actual Time 5:00 AM +03 6:02 PM +03
Civil Twilight 4:36 AM +03 6:26 PM +03
Nautical Twilight 4:07 AM +03 6:55 PM +03
Astronomical Twilight 3:38 AM +03 7:24 PM +03
Moon 8:58 PM +03 (4/28) 7:03 AM +03 (4/28)
Length of Visible Light 13h 50m
Length of Day
13h 02m
Waning Gibbous, 91% of the Moon is Illuminated
Apr 28
Waning Gibbous
May 2
Last Quarter
May 10
New
May 18
First Quarter
May 25
Full

Hourly Weather History & Observations

Time (+03) Temp. Heat Index Dew Point Humidity Pressure Visibility Wind Dir Wind Speed Gust Speed Precip Events Conditions
12:00 AM 71.6 °F - 57.2 °F 60% 29.95 in - North - - N/A   Clear
12:30 AM 71.6 °F - 57.2 °F 60% 29.95 in - Variable 2.3 mph - N/A   Clear
1:00 AM 71.6 °F - 55.4 °F 57% 29.95 in - SW 3.5 mph - N/A   Clear
2:00 AM 71.6 °F - 55.4 °F 57% 29.92 in - Variable 2.3 mph - N/A   Clear
3:00 AM 72 °F - 55 °F 45% 29.94 in 7 mi WSW 3.5 mph - -   Scattered Clouds
3:00 AM 71.6 °F - 55.4 °F 57% 29.92 in - WSW 3.5 mph - N/A   Clear
3:30 AM 71.6 °F - 53.6 °F 53% 29.92 in - WNW 3.5 mph - N/A   Clear
4:00 AM 71.6 °F - 55.4 °F 57% 29.95 in - Variable 2.3 mph - N/A   Clear
4:30 AM 71.6 °F - 55.4 °F 57% 29.95 in - West 3.5 mph - N/A   Clear
5:00 AM 71.6 °F - 55.4 °F 57% 29.95 in - WNW 4.6 mph - N/A   Clear
5:30 AM 71.6 °F - 55.4 °F 57% 29.95 in - WNW 3.5 mph - N/A   Clear
6:00 AM 71.6 °F - 55.4 °F 57% 29.95 in - WNW 3.5 mph - N/A   Clear
6:30 AM 73.4 °F - 57.2 °F 57% 29.95 in - WNW 5.8 mph - N/A   Clear
7:00 AM 73.4 °F - 59.0 °F 61% 29.95 in - WNW 4.6 mph - N/A   Clear
7:30 AM 75.2 °F - 59.0 °F 57% 29.95 in - WNW 4.6 mph - N/A   Clear
8:00 AM 77.0 °F - 60.8 °F 57% 29.95 in - WSW 3.5 mph - N/A   Clear
8:30 AM 77.0 °F - 57.2 °F 50% 29.95 in - West 4.6 mph - N/A   Clear
9:00 AM 78.8 °F - 57.2 °F 47% 29.98 in - WNW 5.8 mph - N/A   Clear
9:30 AM 80.6 °F 80.8 °F 57.2 °F 45% 29.98 in - WNW 4.6 mph - N/A   Clear
10:00 AM 82.4 °F - 51.8 °F 35% 29.98 in - North 5.8 mph - N/A   Clear
10:30 AM 82.4 °F - 51.8 °F 35% 29.98 in - ESE 3.5 mph - N/A   Clear
11:00 AM 84.2 °F 83.0 °F 55.4 °F 37% 29.98 in - East 9.2 mph - N/A   Clear
11:30 AM 84.2 °F 83.5 °F 57.2 °F 40% 29.95 in - East 8.1 mph - N/A   Clear
12:00 PM 84.2 °F 83.5 °F 57.2 °F 40% 29.95 in - East 9.2 mph - N/A   Clear
12:30 PM 84.2 °F 83.0 °F 55.4 °F 37% 29.95 in 6.2 mi East 9.2 mph - N/A   Mostly Cloudy
1:00 PM 84.2 °F 83.8 °F 59.0 °F 42% 29.95 in - East 8.1 mph - N/A   Clear
1:30 PM 82.4 °F 82.0 °F 57.2 °F 42% 29.95 in 6.2 mi East 9.2 mph - N/A   Scattered Clouds
2:00 PM 82.4 °F 82.0 °F 57.2 °F 42% 29.95 in 6.2 mi ESE 6.9 mph - N/A   Mostly Cloudy
3:00 PM 83 °F - 51 °F 23% 29.92 in 7 mi East 6.9 mph - -   Scattered Clouds
3:00 PM 82.4 °F - 51.8 °F 35% 29.92 in 6.2 mi East 6.9 mph - N/A   Mostly Cloudy
3:30 PM 82.4 °F - 51.8 °F 35% 29.92 in 6.2 mi ESE 8.1 mph - N/A   Mostly Cloudy
4:00 PM 82.4 °F 81.4 °F 53.6 °F 37% 29.92 in 6.2 mi ESE 8.1 mph - N/A   Scattered Clouds
4:30 PM 82.4 °F - 48.2 °F 30% 29.89 in 6.2 mi East 5.8 mph - N/A   Scattered Clouds
5:00 PM 82.4 °F - 51.8 °F 35% 29.89 in 6.2 mi East 6.9 mph - N/A   Scattered Clouds
5:30 PM 80.6 °F 80.8 °F 57.2 °F 45% 29.89 in 6.2 mi East 5.8 mph - N/A   Scattered Clouds
6:00 PM 80.6 °F 80.5 °F 55.4 °F 42% 29.89 in - ENE 5.8 mph - N/A   Clear
6:30 PM 80.6 °F 80.5 °F 55.4 °F 42% 29.89 in - NE 5.8 mph - N/A   Clear
7:00 PM 78.8 °F - 59.0 °F 51% 29.89 in - NE 4.6 mph - N/A   Clear
7:30 PM 78.8 °F - 59.0 °F 51% 29.92 in - NE 4.6 mph - N/A   Clear
8:00 PM 77.0 °F - 60.8 °F 57% 29.92 in - NE 4.6 mph - N/A   Clear
8:30 PM 77.0 °F - 62.6 °F 61% 29.92 in - NNE 5.8 mph - N/A   Clear
9:00 PM 77 °F - 64 °F 56% 29.93 in 7 mi NE 4.6 mph - -   Partly Cloudy
9:00 PM 77.0 °F - 64.4 °F 65% 29.92 in - NE 4.6 mph - N/A   Clear
9:30 PM 77.0 °F - 66.2 °F 69% 29.92 in - ENE 3.5 mph - N/A   Clear
10:00 PM 77.0 °F - 66.2 °F 69% 29.92 in - ENE 3.5 mph - N/A   Clear
10:30 PM 77.0 °F - 66.2 °F 69% 29.92 in - Variable 2.3 mph - N/A   Clear
11:00 PM 77.0 °F - 66.2 °F 69% 29.92 in - ESE 3.5 mph - N/A   Clear
11:30 PM 77.0 °F - 66.2 °F 69% 29.92 in - SE 4.6 mph - N/A   Clear